This is the latest recevied weather packets stored in our database for station/object WV8BRW. If no packets are shown the sender has not sent any weather packets the latest 1 day(s).
| Time | Temp. | Humidity | Pressure | Rain* | Wind** | Luminosity | Snow |
|---|---|---|---|---|---|---|---|
| 1778029657 | 18.33° C | 71% | 1006.4 hPa | 0 mm | 0 m/s | 0 W/m² | - |
| 1778029354 | 18.33° C | 72% | 1006.5 hPa | 0 mm | 0.45 m/s, 335° | 0 W/m² | - |
| 1778029051 | 18.33° C | 71% | 1006.3 hPa | 0 mm | 0.45 m/s, 335° | 0 W/m² | - |
| 1778028748 | 18.33° C | 69% | 1006.7 hPa | 0 mm | 0 m/s | 0 W/m² | - |
| 1778028444 | 18.33° C | 69% | 1006.3 hPa | 0 mm | 0 m/s | 0 W/m² | - |
| 1778028142 | 18.89° C | 69% | 1006.5 hPa | 0 mm | 0 m/s | 0 W/m² | - |
| 1778027837 | 18.89° C | 68% | 1006.6 hPa | 0 mm | 0 m/s | 0 W/m² | - |
| 1778027534 | 18.89° C | 66% | 1006.6 hPa | 0 mm | 0 m/s | 0 W/m² | - |
| 1778027230 | 19.44° C | 66% | 1006.6 hPa | 0 mm | 0 m/s | 0 W/m² | - |
| 1778026926 | 19.44° C | 67% | 1006.6 hPa | 0 mm | 0 m/s | 0 W/m² | - |
| 1778026622 | 19.44° C | 63% | 1006.8 hPa | 0 mm | 0 m/s | 0 W/m² | - |
| 1778026320 | 20° C | 62% | 1007.1 hPa | 0 mm | 0 m/s | 0 W/m² | - |
| 1778026016 | 20° C | 59% | 1006.8 hPa | 0 mm | 0 m/s | 0 W/m² | - |
| 1778025714 | 20.56° C | 59% | 1006.9 hPa | 0 mm | 0 m/s | 0 W/m² | - |
| 1778025412 | 20.56° C | 57% | 1006.9 hPa | 0 mm | 0 m/s | 3 W/m² | - |
| 1778025109 | 20.56° C | 56% | 1006.9 hPa | 0 mm | 0 m/s | 5 W/m² | - |
| 1778024805 | 20.56° C | 56% | 1006.8 hPa | 0 mm | 0 m/s | 9 W/m² | - |
| 1778024503 | 20.56° C | 56% | 1007.2 hPa | 0 mm | 0 m/s | 17 W/m² | - |
| 1778024199 | 20.56° C | 58% | 1007.1 hPa | 0 mm | 0 m/s | 13 W/m² | - |
| 1778023897 | 20.56° C | 56% | 1007.3 hPa | 0 mm | 0 m/s | 10 W/m² | - |
| 1778023595 | 20.56° C | 56% | 1007.2 hPa | 0 mm | 0 m/s | 13 W/m² | - |
| 1778023292 | 20.56° C | 60% | 1007.3 hPa | 0 mm | 0.45 m/s, 345° | 15 W/m² | - |
| 1778022989 | 20.56° C | 59% | 1007.2 hPa | 0 mm | 0 m/s | 12 W/m² | - |
| 1778022687 | 21.11° C | 54% | 1007.3 hPa | 0 mm | 0 m/s | 13 W/m² | - |
| 1778022385 | 21.11° C | 54% | 1007.6 hPa | 0 mm | 0.45 m/s, 342° | 16 W/m² | - |
* Rain latest hour (hover to see other rain measurements)
** Current wind speed in m/s (hover to see current wind gust speed)